This is the latest recevied weather packets stored in our database for station/object DO9LL-1. If no packets are shown the sender has not sent any weather packets the latest 10 day(s).
| Time | Temp. | Humidity | Pressure | Rain* | Wind** | Luminosity | Snow |
|---|---|---|---|---|---|---|---|
| 1788546456 | 17.22° C | 84% | 1011.6 hPa | 0 mm | - | - | - |
| 1788545848 | 17.22° C | 85% | 1011.6 hPa | 0 mm | - | - | - |
| 1788545245 | 17.22° C | 85% | 1011.4 hPa | 0 mm | - | - | - |
| 1788544642 | 17.22° C | 85% | 1011.1 hPa | 0 mm | - | - | - |
| 1788544039 | 17.78° C | 85% | 1011.2 hPa | 0 mm | - | - | - |
| 1788543436 | 17.78° C | 85% | 1011.1 hPa | 0 mm | - | - | - |
| 1788542860 | 17.78° C | 86% | 1011.1 hPa | 0 mm | - | - | - |
| 1788542250 | 17.78° C | 86% | 1010.8 hPa | 0 mm | - | - | - |
| 1788541647 | 17.78° C | 88% | 1010.8 hPa | 0 mm | - | - | - |
| 1788541044 | 17.78° C | 89% | 1010.8 hPa | 0 mm | - | - | - |
| 1788540441 | 17.78° C | 90% | 1010.6 hPa | 0 mm | - | - | - |
| 1788539839 | 17.78° C | 91% | 1010.5 hPa | 0 mm | - | - | - |
| 1788539240 | 17.78° C | 92% | 1010.5 hPa | 0 mm | - | - | - |
| 1788538653 | 17.78° C | 92% | 1010.4 hPa | 0 mm | - | - | - |
| 1788538049 | 17.78° C | 92% | 1010.5 hPa | 0 mm | - | - | - |
| 1788537446 | 17.78° C | 92% | 1010.4 hPa | 0 mm | - | - | - |
| 1788536843 | 17.78° C | 93% | 1010.3 hPa | 0.76 mm | - | - | - |
| 1788536240 | 17.22° C | 93% | 1010.2 hPa | 1.02 mm | - | - | - |
| 1788535642 | 17.22° C | 93% | 1010.3 hPa | 1.52 mm | - | - | - |
| 1788535054 | 17.22° C | 94% | 1010.3 hPa | 2.29 mm | - | - | - |
| 1788534452 | 16.67° C | 94% | 1010 hPa | 2.29 mm | - | - | - |
| 1788533849 | 16.67° C | 93% | 1010 hPa | 2.29 mm | - | - | - |
| 1788533245 | 17.22° C | 93% | 1010 hPa | 1.78 mm | - | - | - |
| 1788532642 | 17.22° C | 94% | 1009.7 hPa | 1.52 mm | - | - | - |
| 1788532039 | 17.22° C | 94% | 1009.7 hPa | 1.52 mm | - | - | - |
* Rain latest hour (hover to see other rain measurements)
** Current wind speed in m/s (hover to see current wind gust speed)